Regional Weather Roundup
Issued by NWS

Home | Current Version | Previous Version | Text Only | Print | Product List | Glossary On
Versions: 1 2 3 4 5 6 7 8 9 10 11 12 13 14 15 16 17 18 19 20 21 22 23 24 25 26 27 28 29 30 31 32 33 34 35 36 37 38 39 40 41 42 43 44 45 46 47 48 49 50
000
ASUS44 KBMX 260410
RWRAL

ALABAMA REGIONAL WEATHER ROUNDUP
NATIONAL WEATHER SERVICE BIRMINGHAM AL
1100 PM CDT SUN JUN 25 2017

NOTE: "FAIR" INDICATES FEW OR NO CLOUDS BELOW 12,000 FEET
WITH NO SIGNIFICANT WEATHER AND/OR OBSTRUCTIONS TO VISIBILITY.

THE REMARK "TC" DENOTES TEMPERATURE IN DEGREES CELSIUS.

ALZ001>011-014-016>018-020-260500-
NORTH ALABAMA

CITY           SKY/WX    TMP DP  RH WIND       PRES   REMARKS
MUSCLE SHOALS  CLEAR     63  58  83 CALM      30.20S
HUNTSVILLE     CLEAR     64  59  83 CALM      30.19R
DECATUR        CLEAR     61  59  93 CALM      30.20R
HALEYVILLE     NOT AVBL
GADSDEN        CLEAR     63  63 100 CALM      30.19R
$$

ALZ012-013-022-023-030>036-040>044-260500-
WEST CENTRAL ALABAMA

CITY           SKY/WX    TMP DP  RH WIND       PRES   REMARKS
TUSCALOOSA     CLEAR     66  65  96 CALM      30.19R
$$

ALZ015-024>027-033>036-040>044-260500-
CENTRAL ALABAMA

CITY           SKY/WX    TMP DP  RH WIND       PRES   REMARKS
BIRMINGHAM     CLEAR     66  63  90 CALM      30.21S
MONTGOMERY     PTCLDY    74  59  59 N6        30.16R
SHELBY CO ARPT CLEAR     66  63  90 CALM      30.19R
MAXWELL AFB    NOT AVBL
GREENVILLE     FAIR      70  58  65 N3        30.16R
$$

ALZ019-021-028-029-037-038-045>048-260500-
EAST CENTRAL ALABAMA

CITY           SKY/WX    TMP DP  RH WIND       PRES   REMARKS
ANNISTON       PTCLDY    64  62  93 CALM      30.19R
ALEXANDER CITY CLOUDY    67  61  81 N3        30.18R
AUBURN         CLEAR     68  58  70 N6        30.17R
$$

ALZ051>064-260500-
SOUTHWEST ALABAMA

CITY           SKY/WX    TMP DP  RH WIND       PRES   REMARKS
MOBILE         PTCLDY    76  65  68 N8        30.15R
BROOKLEY FIELD MOCLDY    80  67  64 N10       30.14R
EVERGREEN      PTCLDY    68  65  90 N5        30.16R
$$

ALZ049-050-065>069-260500-
SOUTHEAST ALABAMA

CITY           SKY/WX    TMP DP  RH WIND       PRES   REMARKS
DOTHAN         MOCLDY    74  64  71 N7        30.16R
OZARK          MOCLDY    75  63  66 N3        30.13R
TROY           PTCLDY    69  65  86 N6        30.16R
EUFAULA        FAIR      67  63  87 CALM      30.12R
$$



USA.gov is the U.S. government's official web portal to all federal, state and local government web resources and services.